Regional Weather Roundup
Issued by NWS

Home | Current Version | Previous Version | Graphics & Text | Print | Product List | Glossary On
Versions: 1 2 3 4 5 6 7 8 9 10 11 12 13 14 15 16 17 18 19 20 21 22 23 24 25 26 27 28 29 30 31 32 33 34 35 36 37 38 39 40 41 42 43 44 45 46 47 48 49 50
000
ASUS45 KSLC 201410
RWRUT

UTAH REGIONAL WEATHER ROUNDUP
NATIONAL WEATHER SERVICE SALT LAKE CITY UT
700 AM MST FRI JAN 20 2017

UTZ001>011-023>025-201500-

NORTHERN UTAH

CITY           SKY/WX    TMP DP  RH WIND       PRES   REMARKS
BRIGHAM CITY     N/A     30  28  93 S3        29.63S
HILL AFB       MOCLDY    28  28 100 S6        29.60S FOG     WCI  22
LOGAN          FOG       26  26 100 N5        29.61S VSB 1   WCI  20
OGDEN          CLOUDY    28  27  96 CALM      29.61S FOG
SALT LAKE CITY FOG       30  29  96 SE5       29.61F VSB 1   WCI  25
TOOELE VALLEY  LGT SNOW  30  30 100 CALM      29.62F
WENDOVER       CLOUDY    23  21  93 CALM      29.63S
HEBER CITY     LGT SNOW  28  27  93 CALM      29.58S
WEST JORDAN    CLOUDY    30  30 100 CALM      29.62S

$$

UTZ011>015-024>027-201500-

CENTRAL/NORTHEAST UTAH

CITY           SKY/WX    TMP DP  RH WIND       PRES   REMARKS
PROVO AIRPORT  MIX PCPN  32  30  93 CALM      29.63S FOG
MOAB/CANYONLAN CLOUDY    30  30 100 NW8       29.62R WCI  22
DELTA          CLOUDY    30  30 100 S8        29.62F WCI  23
PRICE          CLOUDY    17  17 100 CALM      29.60R
ROOSEVELT      CLOUDY    18  14  86 CALM      29.67S FOG
VERNAL         CLOUDY    17  14  88 CALM      29.65S

$$

UTZ013>016-019>022-027-201500-

SOUTHERN UTAH

CITY           SKY/WX    TMP DP  RH WIND       PRES   REMARKS
BRYCE CANYON   MOCLDY     4   1  88 CALM      29.63S
CEDAR CITY     MOCLDY    22  19  89 VRB3      29.62F
MILFORD        CLEAR     26  23  88 SW10      29.62S WCI  16
ST GEORGE      PTSUNNY   37  34  87 CALM      29.71F
HANKSVILLE     CLOUDY    32  32 100 MISG      29.67R
BLANDING       CLOUDY    28  28 100 CALM      29.73R

$$

REGIONAL REPORTS     COLORADO/ARIZONA

CITY           SKY/WX    TMP DP  RH WIND       PRES   REMARKS
CRAIG, CO      FLURRIES  27  23  85 W5        29.57R WCI  22
GRAND JUNCTION LGT SNOW  31  31 100 CALM      29.60R FOG
RIFLE, CO      LGT SNOW  30  30 100 CALM      29.58R FOG
MONTROSE, CO   CLOUDY    31  27  85 E7        29.61R WCI  24
CORTEZ, CO     CLOUDY    30  27  88 SW3       29.68R
COLORADO CITY  PTSUNNY   28  28 100 CALM      29.71F
PAGE, AZ       PTCLDY    34  27  75 SE6       29.69R WCI  29
GRAND CANYON   SNOW      28  28 100 SW14      29.71S VSB 1/2 WCI  17
KINGMAN, AZ    CLOUDY    40  36  86 SE9       29.70F WCI  34
FLAGSTAFF, AZ  FLURRIES  28  25  88 SW13      29.73R WCI  17

$$

REGIONAL REPORTS    NEVADA/IDAHO/WYOMING

CITY           SKY/WX    TMP DP  RH WIND       PRES   REMARKS
LAS VEGAS, NV  MOCLDY    49  34  56 S10       29.61F
ELY, NY        MOCLDY    20  19  96 S15       29.56S WCI   6
ELKO, NV       CLOUDY    23  19  85 NE8       29.51F WCI  14
POCATELLO, ID  CLOUDY    29  25  85 CALM      29.58F
BURLEY, ID     PTCLDY    30  22  72 S15       29.54F WCI  19
FORT BRIDGER,  CLOUDY    26  25  96 W6        29.59F WCI  19
EVANSTON, WY   CLOUDY    23  17  78 CALM      29.56F
ROCK SPRINGS,  CLOUDY    19  17  92 W7        29.56S FOG     WCI  10

$$



USA.gov is the U.S. government's official web portal to all federal, state and local government web resources and services.